sat.trackr.live / text

‹ back to catalog

STARLINK-5203

NORAD 54104 · 2022-136BF

PAYLOAD ACTIVE UNKNOWN

§ Identity

Operator
Country
US
Launch date
2022-10-20
Launch site
AFETR
Launch vehicle
Mass (kg)
RCS (m²)

Purposes: comms

External: N2YO · Heavens-Above · Gunter

§ Orbital elements

Epoch: 2026-05-24T21:09:22.618656Z

Period
95.44 min
Inclination
53.2160°
Eccentricity
0.0001282
Mean motion
15.08838772 rev/d
Perigee alt
538.9 km
Apogee alt
540.6 km
Semi-major
6,917.9 km
B*
2.3251e-5
RAAN
316.6359°
Arg perigee
92.8541°
Mean anomaly
267.2598°
Rev number
19,898

§ Raw data

STARLINK-52031 54104U 22136BF  26144.88151179  .00000082  00000+0  23251-4 0  99912 54104  53.2160 316.6359 0001282  92.8541 267.2598 15.08838772198981

JSON: /api/v1/satellites/54104 · /tle

For live sub-satellite position, see the globe view (requires WebGL).

§ Visibility from observer

Set your observer location to see the next 7 days of passes ≥ 10°. The values pass through the URL so the page stays shareable.

No JS? Fill the form by hand. The geolocation button needs JavaScript.